Glencoe, MN

1:34 AM CDT on April 30, 2017 (GMT -0500)
Glencoe Municipal

Weather History for KGYL - March, 2013

Change the Weather History Date:

Saturday, March 30, 2013

  Actual Average (KHCD) Record (KHCD)
Temperature  
Mean Temperature 38 °F -  
Max Temperature 43 °F 47 °F 83 °F (1968)
Min Temperature 32 °F 26 °F -11 °F (1969)
Degree Days  
Heating Degree Days 28    
Moisture  
Dew Point 36 °F    
Average Humidity 87    
Maximum Humidity 95    
Minimum Humidity 73    
Precipitation  
Precipitation 0.03 in - - ()
Sea Level Pressure  
Sea Level Pressure 29.90 in    
Wind  
Wind Speed 8 mph (SW)    
Max Wind Speed 13 mph    
Max Gust Speed 18 mph    
Visibility 6 miles    
Events Rain , Thunderstorm    
Averages and records for this station are not official NWS values.
T = Trace of Precipitation, MM = Missing Value Source: NWS Daily Summary

Daily Weather History Graph

Daily Weather History Graph

Search for Another Location

Airport or City:

Trip Planner

Search our weather history database for the weather conditions in past years. The results will help you decide how hot, cold, wet, or windy it might be!

Date:

Astronomy

Mar. 30, 2013 Rise Set
Actual Time 7:00 AM CDT 7:41 PM CDT
Civil Twilight 6:30 AM CDT 8:11 PM CDT
Nautical Twilight 5:55 AM CDT 8:46 PM CDT
Astronomical Twilight 5:19 AM CDT 9:22 PM CDT
Moon 11:59 PM CDT 8:46 AM CDT
Length of Visible Light 13h 40m
Length of Day
12h 41m
Waning Gibbous, 86% of the Moon is Illuminated
Mar 30
Waning Gibbous
Apr 2
Last Quarter
Apr 10
New
Apr 18
First Quarter
Apr 25
Full

Hourly Weather History & Observations

Time (CDT) Temp. Windchill Dew Point Humidity Pressure Visibility Wind Dir Wind Speed Gust Speed Precip Events Conditions
12:14 AM 40.1 °F 35.3 °F 35.8 °F 85% 30.02 in 10.0 mi ESE 6.9 mph - N/A   Overcast
12:34 AM 39.4 °F 33.8 °F 35.4 °F 86% 30.01 in 10.0 mi ESE 8.1 mph - N/A   Overcast
12:54 AM 40.1 °F 34.1 °F 35.6 °F 84% 29.99 in 10.0 mi ESE 9.2 mph - N/A Thunderstorm Overcast
1:14 AM 41.2 °F 35.5 °F 35.2 °F 79% 29.98 in 10.0 mi SE 9.2 mph - N/A Thunderstorm Overcast
1:34 AM 40.1 °F 33.2 °F 34.7 °F 81% 29.96 in 10.0 mi SE 11.5 mph - N/A   Overcast
1:54 AM 41.0 °F 36.4 °F 34.7 °F 78% 29.96 in 10.0 mi SSE 6.9 mph - N/A   Mostly Cloudy
2:14 AM 41.5 °F 35.9 °F 35.1 °F 78% 29.95 in 10.0 mi SSE 9.2 mph - N/A   Drizzle
2:34 AM 41.9 °F 35.9 °F 34.9 °F 76% 29.95 in 10.0 mi SSE 10.4 mph - N/A   Overcast
2:54 AM 41.9 °F 35.9 °F 34.7 °F 76% 29.93 in 10.0 mi SSE 10.4 mph 16.1 mph N/A   Overcast
3:14 AM 42.8 °F 37.5 °F 34.7 °F 73% 29.94 in 10.0 mi South 9.2 mph 18.4 mph N/A   Overcast
3:34 AM 42.4 °F 37.0 °F 34.3 °F 73% 29.92 in 10.0 mi South 9.2 mph - N/A   Scattered Clouds
3:54 AM 42.3 °F 37.3 °F 34.7 °F 75% 29.91 in 10.0 mi South 8.1 mph - N/A   Mostly Cloudy
4:14 AM 41.9 °F 35.9 °F 34.7 °F 76% 29.91 in 10.0 mi South 10.4 mph - N/A   Overcast
4:34 AM 41.9 °F 37.5 °F 34.9 °F 76% 29.93 in 10.0 mi SW 6.9 mph - N/A Rain Light Rain
4:55 AM 40.6 °F 37.5 °F 35.2 °F 81% 29.91 in 7.0 mi South 4.6 mph - 0.01 in Rain Rain
5:14 AM 40.1 °F 38.0 °F 35.2 °F 83% 29.92 in 10.0 mi South 3.5 mph - N/A Rain Light Rain
5:34 AM 39.7 °F 36.5 °F 35.1 °F 83% 29.91 in 10.0 mi South 4.6 mph - N/A Rain Light Rain
5:54 AM 39.2 °F 35.9 °F 35.6 °F 87% 29.90 in 10.0 mi South 4.6 mph - 0.01 in   Overcast
6:14 AM 39.2 °F 35.0 °F 35.2 °F 86% 29.90 in 10.0 mi South 5.8 mph - N/A Rain Light Rain
6:34 AM 39.2 °F 34.2 °F 35.1 °F 85% 29.89 in 10.0 mi South 6.9 mph - N/A   Overcast
6:54 AM 39.2 °F 34.2 °F 34.9 °F 84% 29.89 in 10.0 mi South 6.9 mph - N/A   Overcast
7:15 AM 39.2 °F 33.6 °F 35.6 °F 87% 29.89 in 10.0 mi South 8.1 mph - 0.01 in   Overcast
7:34 AM 39.2 °F 33.0 °F 35.2 °F 86% 29.89 in 10.0 mi South 9.2 mph - 0.01 in   Overcast
7:54 AM 39.2 °F 37.0 °F 35.4 °F 86% 29.89 in 10.0 mi SSW 3.5 mph - 0.01 in   Light Drizzle
8:14 AM 39.2 °F 34.2 °F 35.6 °F 87% 29.89 in 10.0 mi SSW 6.9 mph - N/A Rain Light Rain
8:34 AM 38.8 °F 34.6 °F 35.6 °F 88% 29.89 in 10.0 mi SSW 5.8 mph - N/A   Overcast
8:55 AM 38.8 °F 35.4 °F 36.1 °F 90% 29.88 in 10.0 mi SW 4.6 mph - N/A   Overcast
9:14 AM 40.1 °F 36.9 °F 37.2 °F 89% 29.88 in 10.0 mi SW 4.6 mph - N/A   Overcast
9:35 AM 40.8 °F 36.9 °F 37.9 °F 89% 29.87 in 10.0 mi WSW 5.8 mph - N/A   Overcast
9:54 AM 42.3 °F 37.3 °F 38.7 °F 87% 29.88 in 10.0 mi West 8.1 mph - N/A   Scattered Clouds
10:14 AM 41.2 °F 35.5 °F 37.6 °F 87% 29.88 in 7.0 mi West 9.2 mph - N/A   Mostly Cloudy
10:34 AM 42.1 °F 36.6 °F 38.5 °F 87% 29.89 in 7.0 mi West 9.2 mph - N/A   Scattered Clouds
10:54 AM 41.5 °F 35.0 °F 37.9 °F 87% 29.90 in 5.0 mi West 11.5 mph - N/A   Clear
11:14 AM 39.2 °F 34.2 °F 36.5 °F 90% 29.90 in 3.0 mi WSW 6.9 mph - N/A   Mostly Cloudy
11:34 AM 39.0 °F 33.4 °F 36.7 °F 91% 29.90 in 2.5 mi West 8.1 mph - N/A   Overcast
11:54 AM 39.2 °F 33.6 °F 36.9 °F 91% 29.90 in 3.0 mi West 8.1 mph - N/A   Overcast
12:14 PM 40.1 °F 35.3 °F 37.4 °F 90% 29.90 in 3.0 mi West 6.9 mph - N/A   Overcast
12:34 PM 39.7 °F 34.9 °F 37.2 °F 91% 29.90 in 3.0 mi WSW 6.9 mph - N/A   Overcast
12:54 PM 39.0 °F 33.4 °F 36.5 °F 91% 29.90 in 3.0 mi West 8.1 mph - N/A   Overcast
1:14 PM 39.7 °F 34.9 °F 37.6 °F 92% 29.90 in 2.5 mi WSW 6.9 mph - N/A   Overcast
1:34 PM 40.1 °F 34.1 °F 37.4 °F 90% 29.90 in 3.0 mi West 9.2 mph - N/A   Overcast
1:54 PM 41.2 °F 36.0 °F 38.3 °F 89% 29.89 in 3.0 mi West 8.1 mph - N/A   Mostly Cloudy
2:15 PM 41.2 °F 35.5 °F 38.3 °F 89% 29.89 in 3.0 mi West 9.2 mph - N/A   Mostly Cloudy
2:34 PM 42.4 °F 36.5 °F 39.0 °F 88% 29.89 in 4.0 mi West 10.4 mph - N/A   Scattered Clouds
2:54 PM 42.4 °F 36.5 °F 39.2 °F 88% 29.88 in 4.0 mi West 10.4 mph - N/A   Clear
3:15 PM 43.5 °F 37.9 °F 39.9 °F 87% 29.89 in 5.0 mi West 10.4 mph - N/A   Clear
3:34 PM 43.0 °F 38.2 °F 39.4 °F 87% 29.89 in 4.0 mi WSW 8.1 mph - N/A   Clear
3:54 PM 40.5 °F 33.2 °F 37.6 °F 89% 29.89 in 2.5 mi West 12.7 mph 17.3 mph N/A   Mostly Cloudy
4:14 PM 39.4 °F 32.7 °F 37.6 °F 93% 29.89 in 2.0 mi West 10.4 mph - N/A   Overcast
4:34 PM 40.1 °F 33.6 °F 38.1 °F 93% 29.89 in 2.5 mi West 10.4 mph - N/A   Overcast
4:54 PM 38.8 °F 31.6 °F 36.9 °F 93% 29.89 in 2.0 mi West 11.5 mph - N/A   Overcast
5:15 PM 38.3 °F 31.4 °F 36.3 °F 93% 29.89 in 1.8 mi West 10.4 mph - N/A   Overcast
5:34 PM 37.6 °F 30.0 °F 36.0 °F 94% 29.89 in 1.8 mi West 11.5 mph - N/A   Overcast
5:54 PM 38.3 °F 32.5 °F 36.1 °F 92% 29.89 in 2.5 mi West 8.1 mph - N/A   Mostly Cloudy
6:14 PM 39.2 °F 34.2 °F 36.5 °F 90% 29.89 in 4.0 mi West 6.9 mph - N/A   Scattered Clouds
6:34 PM 39.7 °F 34.9 °F 36.5 °F 88% 29.89 in 4.0 mi West 6.9 mph - N/A   Clear
6:55 PM 39.2 °F 33.0 °F 35.6 °F 87% 29.89 in 5.0 mi West 9.2 mph - N/A   Clear
7:14 PM 38.3 °F 33.9 °F 34.9 °F 87% 29.88 in 4.0 mi West 5.8 mph - N/A   Clear
7:34 PM 37.4 °F 31.4 °F 34.3 °F 89% 29.88 in 4.0 mi West 8.1 mph - N/A   Clear
7:54 PM 36.5 °F 30.3 °F 34.0 °F 91% 29.87 in 4.0 mi West 8.1 mph - N/A   Clear
8:14 PM 35.8 °F 28.8 °F 33.4 °F 91% 29.88 in 5.0 mi West 9.2 mph - N/A   Clear
8:34 PM 35.6 °F 27.5 °F 33.1 °F 91% 29.89 in 5.0 mi West 11.5 mph - N/A   Clear
8:54 PM 35.4 °F 28.4 °F 32.9 °F 91% 29.89 in 5.0 mi West 9.2 mph - N/A   Clear
9:15 PM 34.7 °F 28.8 °F 32.9 °F 93% 29.89 in 4.0 mi West 6.9 mph - N/A   Clear
9:34 PM 34.7 °F 26.4 °F 32.5 °F 92% 29.89 in 5.0 mi West 11.5 mph - N/A   Clear
9:54 PM 34.0 °F 26.0 °F 32.0 °F 92% 29.89 in 5.0 mi West 10.4 mph - N/A   Clear
10:14 PM 33.8 °F 25.3 °F 32.0 °F 93% 29.89 in 5.0 mi West 11.5 mph - N/A   Clear
10:34 PM 33.3 °F 26.4 °F 31.6 °F 94% 29.89 in 5.0 mi West 8.1 mph - N/A   Clear
10:54 PM 33.1 °F 25.5 °F 31.6 °F 94% 29.89 in 5.0 mi West 9.2 mph - N/A   Clear
11:14 PM 32.7 °F 25.7 °F 31.3 °F 94% 29.88 in 4.0 mi West 8.1 mph - N/A   Clear
11:35 PM 32.5 °F 23.2 °F 31.1 °F 94% 29.87 in 4.0 mi West 12.7 mph - N/A   Clear
11:54 PM 32.4 °F 24.6 °F 31.1 °F 95% 29.87 in 4.0 mi West 9.2 mph - N/A   Clear